Location: Dumpton Point
(51.3500°N, 1.4433°E)
Time: 18:49:58
(UTC+00:00)

Meteor 2-2 Rocket - Pass Details

Date: 09 April 2020
Orbit: 853 x 928 km, 81.3° (Epoch: 02 June)

Event Time Altitude Azimuth Distance (km) Brightness Sun altitude
Exits shadow 22:24:33 56° 72° (ENE) 1,018 4.5 -27.5°
Drops below altitude 10° 22:29:33 10° 19° (NNE) 2,499 7.2 -27.8°
Sets 22:32:00 0° 16° (NNE) 3,437 8.1 -28.0°
